Regional Weather Roundup
Issued by NWS

Home | Current Version | Previous Version | Graphics & Text | Print | Product List | Glossary On
Versions: 1 2 3 4 5 6 7 8 9 10 11 12 13 14 15 16 17 18 19 20 21 22 23 24 25 26 27 28 29 30 31 32 33 34 35 36 37 38 39 40 41 42 43 44 45 46 47 48 49 50
000
ASUS43 KMPX 240310
RWRMN
WEATHER ROUNDUP FOR MINNESOTA
NATIONAL WEATHER SERVICE TWIN CITIES/CHANHASSEN MN
1000 PM CDT WED APR 23 2014


NOTE: "FAIR" INDICATES FEW OR NO CLOUDS BELOW 12,000 FEET WITH NO
SIGNIFICANT WEATHER AND/OR OBSTRUCTIONS TO VISIBILITY. N/A MEANS
CURRENT SKY AND/OR WEATHER CONDITIONS ARE NOT AVAILABLE.

MNZ060>063-068>070-240400-
   Twin Cities Metro

CITY           SKY/WX    TMP DP  RH WIND       PRES   REMARKS
TWIN CITIES    CLOUDY    43  39  86 E15       29.92S
ST PAUL        CLOUDY    43  38  82 SE13      29.94F
CRYSTAL        CLOUDY    43  37  79 E12G22    29.92R
BLAINE         CLOUDY    43  41  93 E10G17    29.93S
EDEN PRAIRIE   CLOUDY    43  38  82 E12       29.89F
LAKEVILLE      CLOUDY    39  37  93 E14       29.91F
SOUTH ST PAUL  CLOUDY    44  42  95 E9        29.93F
LAKE ELMO      CLOUDY    43  37  81 E12       29.96S
$$
MNZ001>005-007-008-013>017-022>024-027-028-240400-
   Northwest Minnesota

CITY           SKY/WX    TMP DP  RH WIND       PRES   REMARKS
BEMIDJI        LGT SNOW  32  32 100 SE9       29.94R WCI  24
HALLOCK        LGT RAIN  39  37  93 SE24G30   29.89S
ROSEAU         DRIZZLE   43  36  75 S10G17    29.94R
WARROAD        LGT RAIN  41  37  87 S12       29.95R
THIEF RVR FALL CLOUDY    37  34  87 E17G23    29.92R
CROOKSTON      MIX PCPN  37  37 100 SE18G28   29.87F
FOSSTON        LGT SNOW  34  32  93 SE13      29.90R WCI  25
DETROIT LAKES  MIX PCPN  37  36  93 SE15G23   29.87R
MOORHEAD       CLOUDY    43  41  93 SE16G23   29.83F
PARK RAPIDS    LGT RAIN  35  34  96 SE12      29.91S WCI  27
$$
MNZ006-009>011-018-025>026-240400-
   North Central Minnesota

CITY           SKY/WX    TMP DP  RH WIND       PRES   REMARKS
BAUDETTE       CLOUDY    43  35  73 S13       29.95R
FLAG ISLAND    CLOUDY    45  27  49 SE7       29.92S
INTL FALLS     CLOUDY    45  25  45 SE7       29.96R
WASKISH        LGT RAIN  37  36  93 E6        29.96S
BIG FORK       RAIN      39  36  87 S9        29.99R
LONGVILLE      MIX PCPN  34  34 100 E5        29.95S WCI  30
GRAND RAPIDS   CLOUDY    36  32  87 SE9G16    29.98F
CRANE LAKE     CLOUDY    43  18  36 CALM      30.01R
ORR            CLOUDY    45  19  36 SE7       29.97R
COOK           CLOUDY    45  23  42 SE8G16    30.01R
$$
MNZ012-019>021-037-240400-
   Northeast Minnesota

CITY           SKY/WX    TMP DP  RH WIND       PRES   REMARKS
DULUTH         RAIN      38  29  70 E10G18    30.01S
ELY            CLOUDY    39  19  45 SE6       30.01S
HIBBING        LGT RAIN  41  31  67 S10       30.01R
EVELETH        CLOUDY    39  21  48 SE6       30.02R
DULUTH HARBOR  MIX PCPN  36  30  80 NE6G21    30.04S
TWO HARBORS    CLOUDY    37  25  60 E6        30.02R
SILVER BAY     CLOUDY    39  27  60 NE8       30.01S
GRAND MARAIS     N/A     40  26  57 E7        30.06R
G MARAIS ARPRT CLOUDY    39  16  38 E7        30.04S
$$
MNZ029>031-032-039>041-046>048-054>057-064-240400-
   West Central Minnesota

CITY           SKY/WX    TMP DP  RH WIND       PRES   REMARKS
FERGUS FALLS   CLOUDY    41  34  75 SE16G26   29.82R
WHEATON        CLOUDY    43  39  87 E22G31    29.80F
MORRIS         MOCLDY    41  36  81 SE23G29   29.80R
ALEXANDRIA     CLOUDY    39  36  89 SE18G26   29.84F
ELBOW LAKE     CLOUDY    40  35  82 SE17G30   29.82R
WADENA         CLOUDY    37  36  93 E18G25    29.86F
GLENWOOD       MOCLDY    39  36  87 E21G30    29.84F
APPLETON       DRIZZLE   43  37  81 E16       29.80R
BENSON         CLOUDY    43  36  75 SE16G24   29.81F
ORTONVILLE     DRIZZLE   41  36  81 SE20G26   29.77S
MADISON        CLOUDY    46  39  76 SE20      29.79R
WILLMAR        CLOUDY    43  36  75 E20       29.86F
$$
MNZ033>034-036-042>043-049>051-058-059-240400-
   Central Minnesota

CITY           SKY/WX    TMP DP  RH WIND       PRES   REMARKS
ST CLOUD       CLOUDY    42  37  82 E9        29.92S
SAUK CENTRE    CLOUDY    39  37  92 E13G21    29.89S
PAYNESVILLE    CLOUDY    41  36  82 E15       29.89S
AITKIN         LGT RAIN  39  34  81 E8        29.95S
PINE RIVER     LGT RAIN  36  36 100 E12       29.97S
BRAINERD       LGT RAIN  42  35  76 SE9       29.95F
STAPLES        LGT RAIN  37  36  93 SE13G21   29.89F
LONG PRAIRIE   CLOUDY    37  36  93 E15G24    29.89F
LITTLE FALLS   MIX PCPN  37  36  93 E13G18    29.93F
LITCHFIELD     CLOUDY    43  39  87 E14       29.89R
BUFFALO        CLOUDY    42  37  82 E13G21    29.91F
MAPLE LAKE     CLOUDY    42  39  91 E12       29.91F
$$
MNZ037-044-045-052-053-240400-
   East Central Minnesota

CITY           SKY/WX    TMP DP  RH WIND       PRES   REMARKS
PRINCETON      CLOUDY    41  37  87 E8G16     29.95F
MORA           CLOUDY    37  36  93 E7        30.00R
CAMBRIDGE      LGT RAIN  43  36  75 E8        29.95R
RUSH CITY      CLOUDY    40  37  92 E9        29.98S
MOOSE LAKE     LGT RAIN  37  36  93 CALM      30.00R
HINCKLEY       RAIN      41  37  87 E6        30.00R
CLOQUET        LGT RAIN  36  30  80 CALM      30.02R
MCGREGOR       CLOUDY    37  36  93 E8        30.00S
$$
MNZ071>073-080-081-089-090-097-098-240400-
   Southwest Minnesota

CITY           SKY/WX    TMP DP  RH WIND       PRES   REMARKS
MONTEVIDEO     CLOUDY    43  37  81 SE15      29.82R
GRANITE FALLS  CLOUDY    43  36  75 E21G29    29.82F
CANBY          CLOUDY    45  38  78 SE16G23   29.78R
MARSHALL       MOCLDY    46  36  66 SE18G28   29.77R
REDWOOD FALLS  CLOUDY    44  37  76 SE16G23   29.82R
OLIVIA         CLOUDY    43  36  75 SE14G20   29.84R
PIPESTONE      CLOUDY    46  37  71 SE16G28   29.73R
WINDOM         RAIN      45  39  81 E14G21    29.81R
WORTHINGTON    CLOUDY    45  34  65 SE15      29.80R
JACKSON        CLOUDY    45  36  70 SE18      29.80R
TRACY          CLOUDY    45  38  75 SE18      29.78R
SLAYTON        CLOUDY    43  38  80 SE23G29   29.77R
$$
MNZ065>067-074>077-082>085-091>093-240400-
   South Central Minnesota

CITY           SKY/WX    TMP DP  RH WIND       PRES   REMARKS
MANKATO        CLOUDY    45  36  70 SE18G24   29.88S
NEW ULM        CLOUDY    45  37  76 SE18G24   29.85R
ST JAMES       CLOUDY    45  37  76 E15       29.85R
FAIRMONT       CLOUDY    45  36  70 SE17      29.85R
GLENCOE        CLOUDY    43  36  75 E13G20    29.88R
FARIBAULT      CLOUDY    48  32  53 E13G21    29.90F
OWATONNA       CLOUDY    45  36  70 SE16G24   29.89S
WASECA         CLOUDY    41  32  70 E15       29.89F
ALBERT LEA     CLOUDY    45  37  76 SE15G26   29.87R
$$
MNZ078>079-086>088-094>096-240400-
   Southeast Minnesota

CITY           SKY/WX    TMP DP  RH WIND       PRES   REMARKS
ROCHESTER      CLOUDY    44  34  67 SE21G29   29.91F
RED WING       CLOUDY    45  37  76 SE10G16   29.95R
STANTON        CLOUDY    44  37  76 E8G18     29.91F
DODGE CENTER   CLOUDY    46  36  66 SE21      29.89F
WINONA         CLOUDY    43  37  81 SE9       29.98S
AUSTIN         CLOUDY    43  36  75 SE18      29.87F
PRESTON        CLOUDY    44  36  72 SE12G22   29.93F
$$
ABBREVIATIONS USED IN REMARKS
   TC - TEMPERATURES IN CELSIUS
  WCI - WIND CHILL INDEX
   HX - HEAT INDEX
  VSB - VISIBILITY
$$


USA.gov is the U.S. government's official web portal to all federal, state and local government web resources and services.